Torna al catalogo

CZ-3 R/B

AttivoHEO
NORAD 14900·ROCKET BODY·🇨🇳 China

Lanciato Apr 8, 1984 da Xichang Satellite Launch Center

Loading…

Prossimi Passaggi (prossime 24 ore)

TLE

AggiornatoSource: Space-Track

Epoca: Sep 14, 2026, 10:45 UTC

1 14900U 84035B   26257.44829044  .00000043  00000-0  61266-3 0  9992
2 14900  30.7492 298.1087 7154632  51.1118 353.3812  2.34950402293830

Traccia CZ-3 R/B in tempo reale con AllMySat

Download on the App Store